82.8°F
Current conditions from King Hill
Updated every 5 minutes
 
  Tuesday September 2, 2014

Station Historical Data
Daily Summary for February 22, 2012 Units:  English    Metric   Both
« Previous Day
Next Day »
Daily Weekly Monthly Yearly Custom
  High: Low: Average:
Temperature: 45.2 °F 32.8 °F 38.1 °F
Dew Point: 34.1 °F 25.0 °F 30 °F
Humidity: 92% 46% 74%
Wind Speed: 12.0mph 1.0mph 6mph
Wind Gust: 22.0mph - -
Wind- - SW
Pressure: 29.71 in 29.37 in -
Precipitation: 0.00 in    
Historical Graphs
 
 
Tabular Data for February 22, 2012
Time Temperature Dew Point Pressure Wind Wind Speed Wind Gust Humidity Daily Rainfall
00:04 32.8 °F 28.2 °F 29.71 in SSW 7.0 mph 13.0 mph 83% 0.00 in
00:09 33.0 °F 28.4 °F 29.70 in SSW 7.0 mph 13.0 mph 83% 0.00 in
00:14 33.2 °F 28.3 °F 29.70 in SSW 6.0 mph 13.0 mph 82% 0.00 in
00:19 33.4 °F 28.5 °F 29.70 in SSW 6.0 mph 16.0 mph 82% 0.00 in
00:24 33.6 °F 28.7 °F 29.70 in SSW 7.0 mph 20.0 mph 82% 0.00 in
00:29 33.8 °F 28.6 °F 29.70 in SSW 6.0 mph 20.0 mph 81% 0.00 in
00:34 33.9 °F 28.7 °F 29.70 in SSW 6.0 mph 17.0 mph 81% 0.00 in
00:39 34.0 °F 28.8 °F 29.69 in SSW 7.0 mph 13.0 mph 81% 0.00 in
00:44 34.3 °F 29.1 °F 29.69 in SSW 10.0 mph 17.0 mph 81% 0.00 in
00:49 34.4 °F 29.2 °F 29.69 in SSW 7.0 mph 17.0 mph 81% 0.00 in
00:54 34.4 °F 29.2 °F 29.68 in SSW 7.0 mph 13.0 mph 81% 0.00 in
00:59 34.4 °F 28.9 °F 29.68 in SSW 7.0 mph 14.0 mph 80% 0.00 in
01:04 34.7 °F 29.2 °F 29.68 in SSW 6.0 mph 14.0 mph 80% 0.00 in
01:09 34.8 °F 29.3 °F 29.68 in SSW 5.0 mph 15.0 mph 80% 0.00 in
01:14 34.9 °F 29.4 °F 29.67 in SSW 5.0 mph 15.0 mph 80% 0.00 in
01:19 35.0 °F 29.5 °F 29.67 in SSW 6.0 mph 13.0 mph 80% 0.00 in
01:24 35.1 °F 29.2 °F 29.67 in SSW 7.0 mph 13.0 mph 79% 0.00 in
01:29 35.2 °F 29.3 °F 29.67 in SSW 5.0 mph 15.0 mph 79% 0.00 in
01:34 35.3 °F 29.4 °F 29.67 in SSW 7.0 mph 15.0 mph 79% 0.00 in
01:40 35.3 °F 29.4 °F 29.67 in SSW 7.0 mph 15.0 mph 79% 0.00 in
01:49 35.5 °F 29.6 °F 29.66 in SSW 5.0 mph 15.0 mph 79% 0.00 in
01:54 35.5 °F 29.6 °F 29.66 in SSW 8.0 mph 15.0 mph 79% 0.00 in
01:59 35.6 °F 29.7 °F 29.65 in SSW 6.0 mph 15.0 mph 79% 0.00 in
02:04 35.6 °F 29.7 °F 29.65 in SSW 7.0 mph 17.0 mph 79% 0.00 in
02:09 35.6 °F 29.7 °F 29.64 in SSW 8.0 mph 17.0 mph 79% 0.00 in
02:14 35.8 °F 29.6 °F 29.64 in SSW 9.0 mph 17.0 mph 78% 0.00 in
02:19 35.8 °F 29.6 °F 29.64 in SSW 9.0 mph 17.0 mph 78% 0.00 in
02:24 35.8 °F 29.6 °F 29.64 in SSW 8.0 mph 18.0 mph 78% 0.00 in
02:29 35.9 °F 29.7 °F 29.63 in SSW 8.0 mph 18.0 mph 78% 0.00 in
02:35 35.9 °F 29.7 °F 29.63 in SSW 11.0 mph 21.0 mph 78% 0.00 in
02:44 36.0 °F 29.8 °F 29.63 in SSW 10.0 mph 18.0 mph 78% 0.00 in
02:49 35.9 °F 29.7 °F 29.62 in SSW 5.0 mph 18.0 mph 78% 0.00 in
02:54 35.8 °F 29.6 °F 29.62 in SSW 8.0 mph 21.0 mph 78% 0.00 in
02:59 35.7 °F 29.8 °F 29.62 in SSW 11.0 mph 21.0 mph 79% 0.00 in
03:04 35.8 °F 29.9 °F 29.61 in SSW 9.0 mph 21.0 mph 79% 0.00 in
03:09 35.7 °F 29.8 °F 29.61 in SSW 9.0 mph 17.0 mph 79% 0.00 in
03:14 35.7 °F 29.8 °F 29.61 in SSW 8.0 mph 15.0 mph 79% 0.00 in
03:19 35.7 °F 29.8 °F 29.61 in SSW 7.0 mph 18.0 mph 79% 0.00 in
03:24 35.7 °F 29.8 °F 29.61 in SW 6.0 mph 18.0 mph 79% 0.00 in
03:29 35.8 °F 29.9 °F 29.61 in SSW 6.0 mph 15.0 mph 79% 0.00 in
03:35 35.7 °F 29.8 °F 29.60 in SSW 6.0 mph 13.0 mph 79% 0.00 in
03:44 35.9 °F 29.7 °F 29.60 in SSW 7.0 mph 16.0 mph 78% 0.00 in
03:49 35.9 °F 29.7 °F 29.60 in SSW 9.0 mph 16.0 mph 78% 0.00 in
03:54 36.0 °F 29.8 °F 29.59 in SSW 7.0 mph 16.0 mph 78% 0.00 in
03:59 36.0 °F 29.8 °F 29.59 in SSW 11.0 mph 18.0 mph 78% 0.00 in
04:04 36.0 °F 29.8 °F 29.59 in SSW 7.0 mph 18.0 mph 78% 0.00 in
04:09 36.0 °F 29.8 °F 29.59 in SW 5.0 mph 14.0 mph 78% 0.00 in
04:14 36.0 °F 29.8 °F 29.59 in SSW 6.0 mph 13.0 mph 78% 0.00 in
04:20 36.0 °F 29.8 °F 29.59 in SSW 8.0 mph 16.0 mph 78% 0.00 in
04:29 36.1 °F 29.6 °F 29.58 in SSW 7.0 mph 18.0 mph 77% 0.00 in
04:34 36.2 °F 29.7 °F 29.58 in SSW 10.0 mph 16.0 mph 77% 0.00 in
04:39 36.2 °F 29.7 °F 29.58 in SSW 6.0 mph 16.0 mph 77% 0.00 in
04:44 36.2 °F 29.7 °F 29.58 in SSW 7.0 mph 13.0 mph 77% 0.00 in
04:49 36.2 °F 29.7 °F 29.58 in SSW 6.0 mph 14.0 mph 77% 0.00 in
04:54 36.2 °F 29.7 °F 29.58 in SSW 6.0 mph 16.0 mph 77% 0.00 in
04:59 36.3 °F 29.8 °F 29.58 in SSW 8.0 mph 18.0 mph 77% 0.00 in
05:04 36.3 °F 29.5 °F 29.58 in SSW 6.0 mph 18.0 mph 76% 0.00 in
05:09 36.3 °F 29.8 °F 29.57 in SSW 6.0 mph 16.0 mph 77% 0.00 in
05:14 36.2 °F 29.7 °F 29.57 in SSW 5.0 mph 15.0 mph 77% 0.00 in
05:19 36.3 °F 29.8 °F 29.57 in SSW 8.0 mph 16.0 mph 77% 0.00 in
05:24 36.4 °F 29.9 °F 29.57 in SSW 6.0 mph 19.0 mph 77% 0.00 in
05:30 36.4 °F 29.6 °F 29.57 in SSW 8.0 mph 19.0 mph 76% 0.00 in
05:39 36.4 °F 29.6 °F 29.56 in SSW 11.0 mph 18.0 mph 76% 0.00 in
05:44 36.5 °F 29.7 °F 29.57 in SSW 8.0 mph 18.0 mph 76% 0.00 in
05:49 36.4 °F 29.6 °F 29.57 in SSW 9.0 mph 15.0 mph 76% 0.00 in
05:54 36.4 °F 29.9 °F 29.57 in SSW 9.0 mph 17.0 mph 77% 0.00 in
05:59 36.5 °F 29.7 °F 29.56 in SSW 10.0 mph 17.0 mph 76% 0.00 in
06:04 36.5 °F 30.0 °F 29.56 in SSW 7.0 mph 16.0 mph 77% 0.00 in
06:09 36.4 °F 29.9 °F 29.56 in SSW 6.0 mph 15.0 mph 77% 0.00 in
06:14 36.4 °F 29.9 °F 29.56 in SSW 7.0 mph 19.0 mph 77% 0.00 in
06:19 36.4 °F 29.9 °F 29.56 in SSW 7.0 mph 19.0 mph 77% 0.00 in
06:24 36.5 °F 30.0 °F 29.56 in SSW 9.0 mph 16.0 mph 77% 0.00 in
06:29 36.5 °F 30.0 °F 29.56 in SSW 8.0 mph 16.0 mph 77% 0.00 in
06:34 36.5 °F 30.0 °F 29.56 in SW 8.0 mph 15.0 mph 77% 0.00 in
06:39 36.6 °F 30.1 °F 29.56 in SSW 8.0 mph 15.0 mph 77% 0.00 in
06:44 36.6 °F 30.1 °F 29.56 in SSW 9.0 mph 15.0 mph 77% 0.00 in
06:49 36.6 °F 30.1 °F 29.56 in SSW 7.0 mph 15.0 mph 77% 0.00 in
06:54 36.6 °F 30.1 °F 29.56 in SSW 9.0 mph 16.0 mph 77% 0.00 in
06:59 36.6 °F 30.1 °F 29.56 in SSW 9.0 mph 20.0 mph 77% 0.00 in
07:04 36.7 °F 30.2 °F 29.56 in SSW 8.0 mph 20.0 mph 77% 0.00 in
07:09 36.7 °F 30.2 °F 29.56 in SSW 10.0 mph 16.0 mph 77% 0.00 in
07:14 36.8 °F 30.3 °F 29.56 in SSW 8.0 mph 16.0 mph 77% 0.00 in
07:19 36.8 °F 30.3 °F 29.55 in SSW 6.0 mph 14.0 mph 77% 0.00 in
07:24 36.8 °F 30.3 °F 29.56 in SSW 8.0 mph 14.0 mph 77% 0.00 in
07:29 36.8 °F 30.3 °F 29.56 in SSW 7.0 mph 14.0 mph 77% 0.00 in
07:34 36.9 °F 30.4 °F 29.56 in SSW 7.0 mph 14.0 mph 77% 0.00 in
07:39 36.9 °F 30.4 °F 29.56 in SSW 8.0 mph 14.0 mph 77% 0.00 in
07:45 37.0 °F 30.5 °F 29.56 in SSW 8.0 mph 15.0 mph 77% 0.00 in
07:54 37.2 °F 30.7 °F 29.56 in SSW 7.0 mph 18.0 mph 77% 0.00 in
07:59 37.2 °F 30.7 °F 29.56 in SSW 5.0 mph 17.0 mph 77% 0.00 in
08:04 37.3 °F 30.8 °F 29.56 in SSW 6.0 mph 14.0 mph 77% 0.00 in
08:09 37.3 °F 30.8 °F 29.55 in SW 9.0 mph 14.0 mph 77% 0.00 in
08:14 37.4 °F 30.9 °F 29.56 in SW 6.0 mph 14.0 mph 77% 0.00 in
08:19 37.4 °F 30.9 °F 29.55 in SSW 7.0 mph 13.0 mph 77% 0.00 in
08:24 37.5 °F 30.6 °F 29.55 in SSW 9.0 mph 16.0 mph 76% 0.00 in
08:29 37.5 °F 30.6 °F 29.55 in SSW 8.0 mph 16.0 mph 76% 0.00 in
08:34 37.5 °F 30.6 °F 29.55 in SSW 8.0 mph 13.0 mph 76% 0.00 in
08:39 37.5 °F 30.6 °F 29.55 in SSW 5.0 mph 13.0 mph 76% 0.00 in
08:44 37.5 °F 30.6 °F 29.55 in SSW 7.0 mph 15.0 mph 76% 0.00 in
08:49 37.5 °F 30.6 °F 29.55 in SSW 6.0 mph 15.0 mph 76% 0.00 in
08:54 37.6 °F 30.7 °F 29.55 in SSW 7.0 mph 13.0 mph 76% 0.00 in
08:59 37.6 °F 30.7 °F 29.55 in SSW 6.0 mph 13.0 mph 76% 0.00 in
09:04 37.7 °F 30.8 °F 29.55 in SSW 7.0 mph 14.0 mph 76% 0.00 in
09:09 37.9 °F 31.0 °F 29.55 in SSW 5.0 mph 14.0 mph 76% 0.00 in
09:14 38.0 °F 31.1 °F 29.55 in SW 7.0 mph 12.0 mph 76% 0.00 in
09:19 38.1 °F 31.2 °F 29.55 in SSW 6.0 mph 12.0 mph 76% 0.00 in
09:24 38.2 °F 31.0 °F 29.55 in SW 9.0 mph 13.0 mph 75% 0.00 in
09:29 38.3 °F 31.1 °F 29.55 in SSW 8.0 mph 14.0 mph 75% 0.00 in
09:34 38.6 °F 31.4 °F 29.55 in SW 5.0 mph 14.0 mph 75% 0.00 in
09:39 38.7 °F 31.5 °F 29.55 in SW 7.0 mph 13.0 mph 75% 0.00 in
09:44 38.8 °F 31.6 °F 29.55 in SW 7.0 mph 13.0 mph 75% 0.00 in
09:49 38.8 °F 31.2 °F 29.55 in SSW 10.0 mph 15.0 mph 74% 0.00 in
09:54 38.9 °F 31.7 °F 29.55 in SSW 6.0 mph 15.0 mph 75% 0.00 in
09:59 39.3 °F 31.7 °F 29.54 in SW 6.0 mph 14.0 mph 74% 0.00 in
10:04 40.3 °F 32.3 °F 29.54 in SW 7.0 mph 13.0 mph 73% 0.00 in
10:09 41.6 °F 32.5 °F 29.54 in SSW 5.0 mph 13.0 mph 70% 0.00 in
10:14 42.1 °F 32.7 °F 29.54 in WSW 7.0 mph 14.0 mph 69% 0.00 in
10:19 42.7 °F 32.1 °F 29.55 in WSW 6.0 mph 14.0 mph 66% 0.00 in
10:24 42.1 °F 31.2 °F 29.54 in WSW 8.0 mph 16.0 mph 65% 0.00 in
10:29 42.4 °F 31.1 °F 29.54 in WSW 7.0 mph 16.0 mph 64% 0.00 in
10:34 43.2 °F 31.1 °F 29.54 in WSW 7.0 mph 15.0 mph 62% 0.00 in
10:39 43.8 °F 31.6 °F 29.54 in WSW 8.0 mph 13.0 mph 62% 0.00 in
10:45 43.5 °F 30.5 °F 29.54 in WSW 8.0 mph 16.0 mph 60% 0.00 in
10:54 43.0 °F 30.9 °F 29.54 in WSW 6.0 mph 15.0 mph 62% 0.00 in
10:59 43.7 °F 31.1 °F 29.54 in West 7.0 mph 13.0 mph 61% 0.00 in
11:04 43.2 °F 30.7 °F 29.54 in West 8.0 mph 16.0 mph 61% 0.00 in
11:09 42.9 °F 30.8 °F 29.54 in West 7.0 mph 16.0 mph 62% 0.00 in
11:14 42.9 °F 30.0 °F 29.54 in WSW 6.0 mph 12.0 mph 60% 0.00 in
11:19 43.3 °F 29.9 °F 29.54 in West 8.0 mph 18.0 mph 59% 0.00 in
11:24 43.0 °F 29.2 °F 29.54 in West 10.0 mph 20.0 mph 58% 0.00 in
11:29 42.4 °F 28.7 °F 29.54 in WSW 9.0 mph 22.0 mph 58% 0.00 in
11:34 42.2 °F 28.9 °F 29.55 in West 8.0 mph 22.0 mph 59% 0.00 in
11:40 42.1 °F 28.4 °F 29.54 in WSW 8.0 mph 18.0 mph 58% 0.00 in
11:49 42.5 °F 27.9 °F 29.54 in West 8.0 mph 16.0 mph 56% 0.00 in
11:54 42.7 °F 28.1 °F 29.53 in WSW 8.0 mph 18.0 mph 56% 0.00 in
11:59 43.2 °F 28.1 °F 29.53 in West 6.0 mph 18.0 mph 55% 0.00 in
12:05 43.4 °F 27.9 °F 29.53 in West 7.0 mph 18.0 mph 54% 0.00 in
12:14 44.0 °F 27.5 °F 29.52 in WSW 8.0 mph 15.0 mph 52% 0.00 in
12:19 44.0 °F 27.5 °F 29.52 in WNW 12.0 mph 17.0 mph 52% 0.00 in
12:24 43.8 °F 27.3 °F 29.52 in WSW 7.0 mph 17.0 mph 52% 0.00 in
12:29 44.6 °F 27.6 °F 29.51 in West 7.0 mph 17.0 mph 51% 0.00 in
12:35 44.5 °F 27.0 °F 29.51 in West 8.0 mph 17.0 mph 50% 0.00 in
12:44 43.2 °F 25.3 °F 29.51 in West 8.0 mph 16.0 mph 49% 0.00 in
12:49 42.7 °F 25.4 °F 29.50 in West 10.0 mph 15.0 mph 50% 0.00 in
12:54 42.3 °F 25.0 °F 29.50 in West 8.0 mph 15.0 mph 50% 0.00 in
12:59 42.2 °F 25.4 °F 29.50 in WNW 6.0 mph 15.0 mph 51% 0.00 in
13:04 42.6 °F 25.3 °F 29.50 in WSW 7.0 mph 14.0 mph 50% 0.00 in
13:09 43.5 °F 26.1 °F 29.49 in SW 6.0 mph 12.0 mph 50% 0.00 in
13:14 44.2 °F 26.3 °F 29.49 in West 5.0 mph 9.0 mph 49% 0.00 in
13:19 44.2 °F 26.3 °F 29.48 in WSW 4.0 mph 11.0 mph 49% 0.00 in
13:24 44.0 °F 25.6 °F 29.47 in West 6.0 mph 12.0 mph 48% 0.00 in
13:29 44.0 °F 25.6 °F 29.47 in SW 8.0 mph 13.0 mph 48% 0.00 in
13:35 44.1 °F 25.7 °F 29.47 in SW 7.0 mph 17.0 mph 48% 0.00 in
13:44 44.3 °F 25.3 °F 29.46 in SW 6.0 mph 13.0 mph 47% 0.00 in
13:49 44.2 °F 26.3 °F 29.46 in SSW 5.0 mph 12.0 mph 49% 0.00 in
13:54 44.3 °F 25.8 °F 29.46 in SW 8.0 mph 13.0 mph 48% 0.00 in
13:59 44.4 °F 26.4 °F 29.46 in SSW 7.0 mph 13.0 mph 49% 0.00 in
14:04 44.3 °F 26.3 °F 29.46 in SW 5.0 mph 12.0 mph 49% 0.00 in
14:09 43.9 °F 26.0 °F 29.47 in SSW 8.0 mph 14.0 mph 49% 0.00 in
14:14 43.4 °F 25.5 °F 29.46 in SW 9.0 mph 16.0 mph 49% 0.00 in
14:19 43.3 °F 25.4 °F 29.46 in SW 10.0 mph 17.0 mph 49% 0.00 in
14:24 43.3 °F 25.4 °F 29.46 in SW 6.0 mph 17.0 mph 49% 0.00 in
14:29 43.3 °F 25.4 °F 29.46 in SW 8.0 mph 14.0 mph 49% 0.00 in
14:35 43.5 °F 26.1 °F 29.46 in SW 7.0 mph 14.0 mph 50% 0.00 in
14:44 43.7 °F 25.8 °F 29.45 in SW 6.0 mph 17.0 mph 49% 0.00 in
14:49 43.8 °F 25.4 °F 29.45 in SSW 6.0 mph 17.0 mph 48% 0.00 in
14:54 44.3 °F 25.3 °F 29.45 in SW 10.0 mph 17.0 mph 47% 0.00 in
14:59 45.1 °F 26.1 °F 29.44 in SW 4.0 mph 17.0 mph 47% 0.00 in
15:04 45.2 °F 25.6 °F 29.44 in SW 9.0 mph 14.0 mph 46% 0.00 in
15:09 44.9 °F 25.9 °F 29.44 in SW 6.0 mph 14.0 mph 47% 0.00 in
15:14 44.3 °F 25.3 °F 29.44 in SSW 6.0 mph 16.0 mph 47% 0.00 in
15:19 43.9 °F 25.5 °F 29.44 in SSW 9.0 mph 17.0 mph 48% 0.00 in
15:24 43.5 °F 25.1 °F 29.44 in SW 10.0 mph 17.0 mph 48% 0.00 in
15:29 43.1 °F 25.2 °F 29.44 in SSW 8.0 mph 17.0 mph 49% 0.00 in
15:34 42.9 °F 25.5 °F 29.44 in SSW 6.0 mph 17.0 mph 50% 0.00 in
15:39 42.8 °F 25.4 °F 29.43 in SSW 8.0 mph 14.0 mph 50% 0.00 in
15:44 42.7 °F 25.8 °F 29.44 in SW 6.0 mph 14.0 mph 51% 0.00 in
15:49 42.5 °F 25.6 °F 29.44 in SW 4.0 mph 14.0 mph 51% 0.00 in
15:54 42.4 °F 25.6 °F 29.44 in SW 4.0 mph 14.0 mph 51% 0.00 in
15:59 42.3 °F 25.9 °F 29.44 in SW 4.0 mph 9.0 mph 52% 0.00 in
16:04 42.2 °F 25.8 °F 29.45 in WSW 4.0 mph 9.0 mph 52% 0.00 in
16:09 42.0 °F 25.6 °F 29.45 in SW 3.0 mph 8.0 mph 52% 0.00 in
16:14 42.0 °F 25.6 °F 29.45 in WSW 4.0 mph 6.0 mph 52% 0.00 in
16:20 42.0 °F 26.1 °F 29.45 in WSW 4.0 mph 9.0 mph 53% 0.00 in
16:30 41.5 °F 28.2 °F 29.45 in SSW 11.0 mph 18.0 mph 59% 0.00 in
16:39 40.4 °F 29.2 °F 29.46 in WSW 5.0 mph 18.0 mph 64% 0.00 in
16:44 40.1 °F 29.3 °F 29.46 in West 3.0 mph 17.0 mph 65% 0.00 in
16:49 39.8 °F 29.7 °F 29.46 in West 8.0 mph 14.0 mph 67% 0.00 in
16:54 39.6 °F 29.9 °F 29.46 in West 6.0 mph 13.0 mph 68% 0.00 in
16:59 39.3 °F 30.0 °F 29.46 in WSW 5.0 mph 13.0 mph 69% 0.00 in
17:04 39.2 °F 30.2 °F 29.47 in West 6.0 mph 13.0 mph 70% 0.00 in
17:09 39.0 °F 30.7 °F 29.47 in WSW 8.0 mph 17.0 mph 72% 0.00 in
17:14 38.7 °F 30.8 °F 29.47 in WSW 6.0 mph 17.0 mph 73% 0.00 in
17:19 38.2 °F 31.3 °F 29.47 in WSW 4.0 mph 12.0 mph 76% 0.00 in
17:24 37.9 °F 31.3 °F 29.47 in West 7.0 mph 13.0 mph 77% 0.00 in
17:29 37.7 °F 31.5 °F 29.47 in WSW 4.0 mph 13.0 mph 78% 0.00 in
17:34 37.4 °F 31.5 °F 29.47 in West 3.0 mph 12.0 mph 79% 0.00 in
17:39 37.2 °F 31.6 °F 29.47 in WSW 3.0 mph 7.0 mph 80% 0.00 in
17:44 37.0 °F 31.7 °F 29.47 in WSW 2.0 mph 7.0 mph 81% 0.00 in
17:49 36.8 °F 31.8 °F 29.47 in WSW 2.0 mph 7.0 mph 82% 0.00 in
17:54 36.7 °F 31.7 °F 29.47 in WSW 2.0 mph 7.0 mph 82% 0.00 in
17:59 36.5 °F 31.5 °F 29.47 in Calm   5.0 mph 82% 0.00 in
18:04 36.4 °F 31.7 °F 29.47 in Calm   3.0 mph 83% 0.00 in
18:09 36.2 °F 31.5 °F 29.47 in WSW 2.0 mph 4.0 mph 83% 0.00 in
18:14 36.0 °F 31.3 °F 29.47 in WSW 2.0 mph 5.0 mph 83% 0.00 in
18:19 36.0 °F 31.6 °F 29.47 in SW 2.0 mph 5.0 mph 84% 0.00 in
18:24 36.0 °F 31.6 °F 29.47 in SW 3.0 mph 6.0 mph 84% 0.00 in
18:29 36.2 °F 31.8 °F 29.47 in SW 2.0 mph 6.0 mph 84% 0.00 in
18:34 36.2 °F 31.8 °F 29.47 in SW 1.0 mph 6.0 mph 84% 0.00 in
18:39 36.3 °F 31.9 °F 29.47 in SW 1.0 mph 5.0 mph 84% 0.00 in
18:44 36.3 °F 31.9 °F 29.47 in SW 2.0 mph 4.0 mph 84% 0.00 in
18:49 36.5 °F 32.1 °F 29.47 in SW 2.0 mph 6.0 mph 84% 0.00 in
18:54 36.6 °F 32.2 °F 29.47 in SW 1.0 mph 6.0 mph 84% 0.00 in
18:59 36.6 °F 32.2 °F 29.47 in SW 2.0 mph 6.0 mph 84% 0.00 in
19:04 36.6 °F 32.2 °F 29.47 in SW 2.0 mph 6.0 mph 84% 0.00 in
19:09 36.5 °F 32.1 °F 29.47 in SW 1.0 mph 5.0 mph 84% 0.00 in
19:14 36.5 °F 33.6 °F 29.47 in SW 2.0 mph 5.0 mph 89% 0.00 in
19:19 36.5 °F 32.1 °F 29.47 in Calm   5.0 mph 84% 0.00 in
19:24 36.5 °F 32.1 °F 29.46 in Calm   3.0 mph 84% 0.00 in
19:29 36.5 °F 32.1 °F 29.47 in SW 1.0 mph 4.0 mph 84% 0.00 in
19:34 36.5 °F 32.1 °F 29.47 in Calm   4.0 mph 84% 0.00 in
19:39 36.5 °F 32.4 °F 29.47 in Calm   3.0 mph 85% 0.00 in
19:44 36.5 °F 32.4 °F 29.47 in WSW 1.0 mph 6.0 mph 85% 0.00 in
19:49 36.6 °F 32.5 °F 29.47 in WSW 2.0 mph 6.0 mph 85% 0.00 in
19:54 36.6 °F 32.5 °F 29.47 in SW 2.0 mph 5.0 mph 85% 0.00 in
19:59 36.6 °F 32.8 °F 29.47 in WSW 3.0 mph 7.0 mph 86% 0.00 in
20:04 36.6 °F 32.8 °F 29.48 in WSW 4.0 mph 7.0 mph 86% 0.00 in
20:09 36.4 °F 32.6 °F 29.48 in SW 4.0 mph 11.0 mph 86% 0.00 in
20:14 36.2 °F 32.4 °F 29.47 in WSW 3.0 mph 11.0 mph 86% 0.00 in
20:19 36.0 °F 32.2 °F 29.48 in SW 3.0 mph 11.0 mph 86% 0.00 in
20:24 35.9 °F 32.1 °F 29.48 in SW 4.0 mph 12.0 mph 86% 0.00 in
20:29 35.8 °F 32.3 °F 29.47 in WSW 6.0 mph 12.0 mph 87% 0.00 in
20:34 35.7 °F 32.2 °F 29.47 in SSW 4.0 mph 10.0 mph 87% 0.00 in
20:39 35.6 °F 32.1 °F 29.47 in SW 6.0 mph 11.0 mph 87% 0.00 in
20:44 35.5 °F 32.3 °F 29.47 in SSW 4.0 mph 11.0 mph 88% 0.00 in
20:49 35.4 °F 32.2 °F 29.47 in SSW 4.0 mph 8.0 mph 88% 0.00 in
20:54 35.3 °F 32.1 °F 29.47 in SSW 5.0 mph 8.0 mph 88% 0.00 in
20:59 35.3 °F 32.1 °F 29.47 in SSW 4.0 mph 8.0 mph 88% 0.00 in
21:04 35.2 °F 32.3 °F 29.46 in SW 3.0 mph 9.0 mph 89% 0.00 in
21:09 35.2 °F 32.3 °F 29.46 in South 3.0 mph 9.0 mph 89% 0.00 in
21:14 35.2 °F 32.3 °F 29.46 in South 4.0 mph 9.0 mph 89% 0.00 in
21:19 35.2 °F 32.3 °F 29.45 in SSW 4.0 mph 9.0 mph 89% 0.00 in
21:25 35.2 °F 32.3 °F 29.45 in SSW 4.0 mph 7.0 mph 89% 0.00 in
21:35 35.2 °F 32.6 °F 29.45 in SSW 3.0 mph 8.0 mph 90% 0.00 in
21:44 35.2 °F 32.6 °F 29.44 in South 4.0 mph 8.0 mph 90% 0.00 in
21:49 35.1 °F 32.5 °F 29.43 in South 4.0 mph 8.0 mph 90% 0.00 in
21:54 35.0 °F 32.4 °F 29.43 in SSW 3.0 mph 6.0 mph 90% 0.00 in
21:59 35.0 °F 32.6 °F 29.43 in SSW 4.0 mph 6.0 mph 91% 0.00 in
22:04 35.0 °F 32.6 °F 29.43 in South 4.0 mph 8.0 mph 91% 0.00 in
22:09 35.0 °F 32.6 °F 29.43 in Calm   8.0 mph 91% 0.00 in
22:14 34.9 °F 32.5 °F 29.43 in SSW 3.0 mph 5.0 mph 91% 0.00 in
22:19 34.9 °F 32.5 °F 29.43 in SSW 2.0 mph 6.0 mph 91% 0.00 in
22:25 34.9 °F 32.5 °F 29.43 in SSW 2.0 mph 6.0 mph 91% 0.00 in
22:30 34.9 °F 32.5 °F 29.42 in SSW 2.0 mph 5.0 mph 91% 0.00 in
22:35 35.0 °F 32.6 °F 29.42 in SSW 2.0 mph 5.0 mph 91% 0.00 in
22:44 35.0 °F 32.6 °F 29.41 in SSW 1.0 mph 5.0 mph 91% 0.00 in
22:49 35.1 °F 32.7 °F 29.40 in SSE 3.0 mph 6.0 mph 91% 0.00 in
22:54 35.3 °F 32.9 °F 29.40 in South 3.0 mph 6.0 mph 91% 0.00 in
22:59 35.4 °F 33.0 °F 29.40 in South 2.0 mph 6.0 mph 91% 0.00 in
23:04 35.6 °F 33.5 °F 29.40 in SSW 2.0 mph 6.0 mph 92% 0.00 in
23:09 35.9 °F 33.5 °F 29.39 in South 4.0 mph 7.0 mph 91% 0.00 in
23:14 36.1 °F 33.7 °F 29.39 in South 3.0 mph 7.0 mph 91% 0.00 in
23:20 36.2 °F 34.1 °F 29.39 in South 3.0 mph 11.0 mph 92% 0.00 in
23:29 36.4 °F 34.0 °F 29.38 in SSW 2.0 mph 7.0 mph 91% 0.00 in
23:34 36.4 °F 34.0 °F 29.37 in South 1.0 mph 6.0 mph 91% 0.00 in
23:39 36.3 °F 33.9 °F 29.38 in Calm   5.0 mph 91% 0.00 in
23:44 36.2 °F 33.8 °F 29.38 in SW 1.0 mph 4.0 mph 91% 0.00 in
23:49 36.1 °F 33.7 °F 29.38 in Calm   4.0 mph 91% 0.00 in
23:54 35.8 °F 33.4 °F 29.37 in Calm     91% 0.00 in
23:59 35.6 °F 33.2 °F 29.37 in Calm     91% 0.00 in
Westford Weather
Compliments of Weather Underground

 
 
Current Radar Loop:

Copyright © WestfordWeather.net 2007-2014. All rights reserved.